Precipitable_Water
0.83 0.87 0.91 0.95 0.95 0.95 0.93 0.91 0.93 0.95 0.95 0.95 0.97 0.99 1.01 1.05 1.05 1.03 1.03 1.03 1.01 0.99 0.97 0.95 0.95 0.95 0.95 0.97 0.99 0.99 1.01 1.01 1.03 1.03 1.01 1.01 0.99 0.99 1.01 1.01 1.03 1.05 1.05 1.07 1.07 1.07 1.07 1.07 1.05 1.01 0.99 0.97 0.97 0.97 0.95 0.95 0.95 0.95 0.97 0.99 0.95 0.93 0.95 0.97 0.97 1.01 1.07 1.17 1.21
0.79 0.85 0.93 1.03 1.01 0.97 0.95 0.93 0.95 0.95 0.95 0.97 0.99 1.01 1.03 1.05 1.03 1.03 1.01 1.01 0.99 0.97 0.95 0.95 0.95 0.95 0.95 0.97 0.99 1.01 1.01 1.01 1.01 1.01 0.99 0.97 0.97 0.99 0.99 1.01 1.01 1.03 1.03 1.03 1.05 1.05 1.05 1.03 0.97 0.93 0.93 0.93 0.93 0.91 0.91 0.93 0.93 0.91 0.91 0.91 0.87 0.87 0.89 0.89 0.91 0.91 0.95 0.99 1.11
0.79 0.83 0.91 1.01 1.01 0.99 0.97 0.95 0.95 0.95 0.97 0.99 1.01 1.05 1.07 1.07 1.03 1.01 0.99 0.97 0.97 0.97 0.95 0.93 0.95 0.95 0.95 0.95 0.97 0.99 0.99 0.99 0.99 0.97 0.97 0.95 0.95 0.97 0.99 0.99 0.99 0.99 0.99 0.99 0.99 0.99 0.99 0.97 0.89 0.85 0.85 0.83 0.83 0.85 0.85 0.89 0.89 0.87 0.87 0.85 0.83 0.83 0.85 0.87 0.89 0.91 0.93 0.93 1.01
0.79 0.83 0.89 0.97 0.99 0.99 0.97 0.97 0.97 0.97 0.99 1.01 1.05 1.07 1.07 1.07 1.01 0.97 0.95 0.95 0.95 0.95 0.95 0.95 0.95 0.95 0.95 0.95 0.95 0.95 0.95 0.95 0.95 0.93 0.91 0.91 0.91 0.93 0.93 0.93 0.93 0.93 0.93 0.93 0.91 0.91 0.89 0.87 0.85 0.83 0.81 0.79 0.79 0.79 0.79 0.79 0.81 0.83 0.81 0.79 0.81 0.81 0.83 0.85 0.87 0.91 0.93 0.93 0.95
0.79 0.81 0.87 0.95 0.97 0.99 0.99 0.99 0.99 1.01 1.03 1.05 1.05 1.05 1.05 1.05 0.99 0.95 0.93 0.93 0.93 0.93 0.95 0.95 0.95 0.95 0.95 0.93 0.91 0.91 0.89 0.87 0.87 0.85 0.85 0.85 0.87 0.89 0.89 0.89 0.89 0.87 0.87 0.87 0.87 0.87 0.85 0.83 0.83 0.81 0.79 0.79 0.77 0.77 0.77 0.77 0.77 0.77 0.77 0.77 0.79 0.79 0.81 0.81 0.85 0.87 0.91 0.91 0.89
0.75 0.79 0.85 0.93 0.97 0.97 0.99 0.99 0.99 1.03 1.05 1.05 1.03 1.03 1.01 1.01 0.97 0.95 0.95 0.93 0.95 0.95 0.95 0.95 0.95 0.93 0.91 0.89 0.87 0.85 0.83 0.83 0.81 0.81 0.83 0.83 0.85 0.85 0.85 0.85 0.85 0.85 0.85 0.85 0.85 0.83 0.83 0.81 0.79 0.79 0.77 0.75 0.75 0.75 0.75 0.75 0.75 0.75 0.75 0.77 0.79 0.81 0.81 0.81 0.83 0.85 0.85 0.87 0.87
0.72 0.75 0.81 0.89 0.93 0.95 0.97 0.99 1.01 1.03 1.03 1.01 1.01 0.99 0.99 0.99 0.99 0.99 0.99 0.99 0.99 0.97 0.97 0.95 0.91 0.87 0.85 0.83 0.83 0.83 0.83 0.83 0.83 0.83 0.83 0.83 0.83 0.83 0.83 0.83 0.83 0.83 0.83 0.83 0.83 0.81 0.79 0.79 0.75 0.73 0.73 0.73 0.73 0.73 0.73 0.75 0.75 0.77 0.77 0.79 0.81 0.81 0.83 0.83 0.83 0.85 0.85 0.85 0.87
0.72 0.73 0.77 0.85 0.89 0.93 0.95 0.97 0.99 0.99 1.01 0.99 0.99 0.99 0.99 1.01 1.03 1.05 1.05 1.03 1.01 0.97 0.93 0.91 0.87 0.83 0.83 0.81 0.81 0.83 0.83 0.85 0.83 0.83 0.83 0.81 0.81 0.81 0.81 0.81 0.81 0.83 0.83 0.83 0.81 0.79 0.75 0.73 0.73 0.72 0.72 0.73 0.73 0.75 0.77 0.77 0.77 0.79 0.81 0.81 0.83 0.85 0.85 0.85 0.85 0.85 0.85 0.85 0.87
0.72 0.73 0.75 0.83 0.85 0.89 0.91 0.95 0.97 0.97 0.97 0.97 0.97 0.99 1.01 1.03 1.05 1.05 1.03 0.99 0.95 0.91 0.89 0.87 0.83 0.83 0.83 0.83 0.85 0.85 0.83 0.81 0.79 0.79 0.79 0.79 0.79 0.79 0.79 0.81 0.81 0.81 0.81 0.81 0.77 0.75 0.73 0.73 0.73 0.73 0.75 0.75 0.77 0.77 0.79 0.79 0.79 0.81 0.81 0.81 0.83 0.85 0.85 0.87 0.87 0.87 0.87 0.87 0.87
0.72 0.73 0.75 0.81 0.85 0.87 0.89 0.91 0.93 0.95 0.95 0.97 0.97 0.99 1.01 1.03 0.99 0.95 0.91 0.89 0.87 0.85 0.85 0.83 0.85 0.85 0.85 0.85 0.83 0.81 0.79 0.77 0.75 0.75 0.75 0.75 0.77 0.77 0.77 0.79 0.79 0.79 0.79 0.77 0.73 0.73 0.73 0.75 0.75 0.77 0.77 0.79 0.79 0.79 0.81 0.81 0.81 0.81 0.81 0.81 0.83 0.83 0.85 0.87 0.87 0.87 0.87 0.87 0.87
0.73 0.73 0.77 0.81 0.85 0.87 0.89 0.89 0.89 0.91 0.93 0.93 0.95 0.95 0.95 0.95 0.93 0.89 0.85 0.83 0.81 0.81 0.83 0.85 0.87 0.87 0.85 0.81 0.79 0.77 0.75 0.73 0.73 0.73 0.73 0.73 0.73 0.75 0.75 0.77 0.75 0.75 0.73 0.68 0.70 0.70 0.72 0.75 0.75 0.75 0.77 0.77 0.79 0.79 0.79 0.81 0.79 0.79 0.79 0.81 0.81 0.83 0.83 0.85 0.85 0.87 0.87 0.85 0.87
0.73 0.73 0.75 0.81 0.83 0.85 0.87 0.89 0.89 0.89 0.91 0.91 0.93 0.93 0.93 0.91 0.89 0.85 0.81 0.79 0.79 0.81 0.83 0.87 0.85 0.83 0.79 0.77 0.75 0.73 0.72 0.72 0.72 0.72 0.72 0.72 0.72 0.73 0.73 0.73 0.72 0.68 0.66 0.62 0.64 0.66 0.70 0.70 0.70 0.70 0.72 0.72 0.73 0.75 0.75 0.75 0.73 0.73 0.75 0.77 0.79 0.79 0.81 0.81 0.83 0.83 0.83 0.83 0.85
0.75 0.75 0.77 0.79 0.83 0.85 0.87 0.87 0.87 0.87 0.89 0.89 0.89 0.89 0.89 0.87 0.85 0.81 0.79 0.79 0.79 0.81 0.81 0.81 0.79 0.77 0.73 0.72 0.72 0.70 0.70 0.68 0.68 0.70 0.70 0.70 0.70 0.70 0.68 0.66 0.62 0.58 0.56 0.58 0.60 0.60 0.62 0.62 0.62 0.62 0.62 0.64 0.64 0.66 0.66 0.62 0.64 0.68 0.70 0.72 0.73 0.75 0.77 0.77 0.79 0.79 0.79 0.79 0.81
0.75 0.77 0.79 0.81 0.83 0.85 0.85 0.87 0.87 0.85 0.85 0.85 0.85 0.85 0.85 0.83 0.81 0.79 0.79 0.79 0.77 0.77 0.77 0.75 0.73 0.72 0.68 0.68 0.66 0.66 0.66 0.66 0.66 0.66 0.66 0.64 0.62 0.60 0.56 0.54 0.52 0.52 0.52 0.54 0.54 0.54 0.54 0.54 0.54 0.56 0.56 0.58 0.58 0.60 0.60 0.56 0.56 0.58 0.60 0.62 0.64 0.68 0.70 0.72 0.73 0.73 0.73 0.75 0.75
0.73 0.75 0.79 0.81 0.83 0.83 0.85 0.85 0.83 0.83 0.81 0.81 0.81 0.81 0.79 0.79 0.77 0.77 0.75 0.73 0.73 0.72 0.70 0.68 0.66 0.64 0.62 0.62 0.62 0.62 0.62 0.64 0.62 0.60 0.56 0.54 0.50 0.48 0.46 0.46 0.46 0.48 0.50 0.50 0.50 0.50 0.50 0.50 0.52 0.52 0.52 0.54 0.54 0.54 0.52 0.52 0.52 0.52 0.54 0.54 0.56 0.58 0.60 0.64 0.66 0.64 0.62 0.68 0.70
0.68 0.72 0.77 0.79 0.79 0.81 0.81 0.79 0.79 0.77 0.75 0.75 0.75 0.75 0.75 0.73 0.73 0.72 0.70 0.68 0.66 0.66 0.64 0.62 0.62 0.60 0.60 0.60 0.60 0.60 0.60 0.58 0.56 0.52 0.48 0.46 0.44 0.44 0.44 0.46 0.48 0.50 0.50 0.50 0.48 0.48 0.48 0.48 0.48 0.48 0.48 0.48 0.50 0.48 0.46 0.48 0.48 0.50 0.50 0.50 0.50 0.50 0.52 0.52 0.54 0.52 0.50 0.52 0.56
0.66 0.68 0.72 0.73 0.75 0.75 0.73 0.73 0.72 0.72 0.70 0.70 0.72 0.72 0.72 0.70 0.70 0.66 0.64 0.62 0.60 0.60 0.58 0.58 0.58 0.58 0.58 0.58 0.56 0.54 0.52 0.50 0.48 0.46 0.44 0.42 0.42 0.42 0.44 0.46 0.48 0.50 0.50 0.50 0.48 0.48 0.48 0.48 0.48 0.48 0.46 0.46 0.46 0.46 0.44 0.44 0.44 0.44 0.46 0.46 0.46 0.46 0.46 0.46 0.44 0.42 0.42 0.42 0.44
0.64 0.68 0.70 0.72 0.72 0.72 0.70 0.70 0.68 0.68 0.68 0.68 0.68 0.68 0.68 0.68 0.66 0.62 0.60 0.58 0.56 0.54 0.54 0.54 0.54 0.54 0.54 0.52 0.50 0.48 0.46 0.44 0.42 0.40 0.40 0.38 0.40 0.42 0.44 0.44 0.46 0.46 0.48 0.48 0.48 0.48 0.48 0.48 0.48 0.48 0.48 0.48 0.46 0.46 0.46 0.44 0.44 0.44 0.42 0.42 0.42 0.44 0.44 0.42 0.42 0.42 0.42 0.40 0.40
0.66 0.70 0.70 0.70 0.70 0.70 0.70 0.70 0.70 0.68 0.68 0.68 0.68 0.68 0.66 0.64 0.62 0.58 0.56 0.54 0.52 0.50 0.50 0.48 0.50 0.50 0.50 0.46 0.44 0.42 0.40 0.38 0.36 0.36 0.34 0.34 0.38 0.40 0.40 0.42 0.42 0.42 0.44 0.44 0.46 0.46 0.48 0.48 0.48 0.48 0.48 0.48 0.46 0.46 0.46 0.46 0.46 0.44 0.44 0.44 0.44 0.42 0.42 0.42 0.42 0.42 0.42 0.40 0.40
0.68 0.68 0.70 0.70 0.70 0.70 0.70 0.70 0.70 0.68 0.68 0.68 0.66 0.66 0.64 0.60 0.58 0.56 0.52 0.50 0.48 0.48 0.46 0.46 0.48 0.48 0.46 0.42 0.40 0.38 0.36 0.34 0.32 0.32 0.34 0.36 0.38 0.38 0.38 0.40 0.40 0.40 0.40 0.40 0.42 0.42 0.42 0.44 0.44 0.44 0.44 0.44 0.42 0.42 0.42 0.44 0.44 0.44 0.44 0.44 0.44 0.42 0.42 0.42 0.42 0.42 0.42 0.40 0.40
0.66 0.66 0.66 0.66 0.66 0.66 0.68 0.68 0.66 0.66 0.66 0.64 0.64 0.62 0.60 0.58 0.56 0.54 0.50 0.48 0.46 0.46 0.46 0.46 0.46 0.44 0.44 0.42 0.38 0.36 0.34 0.34 0.34 0.34 0.36 0.40 0.40 0.40 0.40 0.40 0.38 0.38 0.38 0.38 0.40 0.40 0.40 0.40 0.40 0.40 0.40 0.40 0.38 0.38 0.38 0.38 0.40 0.40 0.40 0.40 0.42 0.42 0.42 0.42 0.42 0.42 0.42 0.40 0.40
0.60 0.60 0.60 0.60 0.60 0.60 0.60 0.60 0.60 0.60 0.60 0.58 0.58 0.56 0.54 0.54 0.52 0.50 0.48 0.46 0.46 0.46 0.44 0.44 0.44 0.42 0.40 0.38 0.36 0.34 0.34 0.34 0.36 0.36 0.38 0.40 0.40 0.40 0.40 0.40 0.40 0.40 0.38 0.38 0.38 0.38 0.38 0.40 0.40 0.40 0.38 0.36 0.36 0.36 0.36 0.36 0.36 0.36 0.38 0.38 0.40 0.40 0.40 0.40 0.40 0.40 0.40 0.40 0.40
0.52 0.52 0.52 0.50 0.52 0.52 0.52 0.52 0.52 0.52 0.52 0.50 0.50 0.50 0.48 0.48 0.46 0.46 0.44 0.42 0.42 0.42 0.40 0.40 0.38 0.38 0.36 0.34 0.32 0.32 0.32 0.34 0.34 0.34 0.36 0.38 0.38 0.38 0.40 0.42 0.42 0.40 0.40 0.38 0.36 0.36 0.36 0.36 0.38 0.36 0.36 0.36 0.34 0.34 0.34 0.34 0.34 0.36 0.36 0.38 0.38 0.38 0.38 0.38 0.38 0.40 0.40 0.40 0.40
0.46 0.46 0.46 0.46 0.46 0.46 0.46 0.46 0.44 0.44 0.44 0.44 0.44 0.42 0.42 0.42 0.42 0.40 0.40 0.38 0.38 0.36 0.36 0.34 0.34 0.32 0.32 0.30 0.28 0.28 0.30 0.30 0.32 0.32 0.34 0.34 0.36 0.36 0.38 0.38 0.38 0.38 0.36 0.36 0.34 0.34 0.34 0.34 0.36 0.36 0.34 0.34 0.34 0.34 0.34 0.34 0.32 0.32 0.32 0.34 0.34 0.34 0.32 0.34 0.36 0.36 0.38 0.38 0.38
0.48 0.48 0.46 0.46 0.44 0.44 0.42 0.42 0.40 0.40 0.40 0.38 0.38 0.38 0.38 0.38 0.36 0.36 0.36 0.34 0.34 0.32 0.32 0.30 0.30 0.28 0.28 0.26 0.26 0.28 0.30 0.30 0.32 0.32 0.32 0.32 0.34 0.34 0.34 0.34 0.32 0.32 0.32 0.32 0.32 0.34 0.34 0.34 0.34 0.36 0.36 0.34 0.34 0.34 0.32 0.32 0.32 0.30 0.30 0.30 0.30 0.30 0.28 0.28 0.30 0.30 0.32 0.32 0.34
0.50 0.48 0.46 0.46 0.44 0.44 0.42 0.40 0.38 0.38 0.36 0.36 0.36 0.34 0.34 0.34 0.34 0.34 0.32 0.30 0.30 0.30 0.28 0.28 0.26 0.26 0.24 0.24 0.26 0.26 0.28 0.30 0.32 0.32 0.32 0.32 0.30 0.30 0.30 0.30 0.30 0.30 0.30 0.30 0.32 0.34 0.36 0.36 0.36 0.36 0.36 0.34 0.32 0.32 0.32 0.32 0.30 0.30 0.30 0.30 0.26 0.26 0.26 0.24 0.24 0.26 0.26 0.28 0.28
0.46 0.46 0.44 0.44 0.42 0.42 0.40 0.40 0.38 0.36 0.36 0.34 0.34 0.34 0.32 0.32 0.32 0.32 0.30 0.28 0.28 0.26 0.26 0.24 0.24 0.24 0.24 0.24 0.26 0.26 0.28 0.32 0.32 0.30 0.30 0.30 0.28 0.28 0.28 0.28 0.28 0.28 0.30 0.32 0.34 0.36 0.36 0.38 0.36 0.36 0.36 0.36 0.32 0.32 0.30 0.30 0.28 0.28 0.28 0.26 0.22 0.22 0.20 0.20 0.20 0.20 0.20 0.22 0.24
0.44 0.42 0.42 0.40 0.40 0.38 0.38 0.38 0.36 0.34 0.34 0.34 0.32 0.32 0.32 0.30 0.30 0.28 0.28 0.28 0.26 0.24 0.24 0.24 0.24 0.24 0.26 0.26 0.28 0.28 0.30 0.30 0.30 0.30 0.28 0.28 0.28 0.28 0.28 0.28 0.28 0.28 0.30 0.32 0.34 0.36 0.36 0.36 0.36 0.36 0.36 0.34 0.34 0.30 0.28 0.26 0.26 0.24 0.24 0.22 0.20 0.18 0.18 0.18 0.18 0.18 0.18 0.18 0.20
0.40 0.40 0.38 0.38 0.36 0.36 0.36 0.34 0.34 0.32 0.32 0.32 0.30 0.30 0.30 0.28 0.28 0.26 0.26 0.24 0.24 0.24 0.24 0.24 0.24 0.26 0.26 0.28 0.30 0.30 0.30 0.28 0.28 0.28 0.28 0.28 0.28 0.28 0.28 0.30 0.30 0.30 0.30 0.32 0.34 0.36 0.36 0.34 0.32 0.32 0.32 0.30 0.30 0.28 0.26 0.24 0.22 0.20 0.20 0.18 0.18 0.18 0.18 0.18 0.18 0.18 0.20 0.20 0.20
0.34 0.34 0.34 0.34 0.32 0.32 0.32 0.32 0.30 0.30 0.30 0.30 0.30 0.28 0.28 0.26 0.26 0.24 0.24 0.24 0.24 0.24 0.24 0.24 0.24 0.26 0.28 0.30 0.30 0.30 0.30 0.30 0.30 0.30 0.30 0.30 0.30 0.30 0.30 0.30 0.32 0.32 0.32 0.32 0.34 0.32 0.30 0.30 0.28 0.28 0.28 0.28 0.28 0.26 0.24 0.24 0.22 0.20 0.20 0.20 0.20 0.20 0.20 0.20 0.20 0.20 0.22 0.22 0.22
0.36 0.34 0.32 0.32 0.30 0.30 0.28 0.28 0.28 0.28 0.26 0.26 0.26 0.26 0.24 0.24 0.24 0.22 0.22 0.22 0.22 0.22 0.24 0.26 0.26 0.28 0.30 0.32 0.32 0.32 0.32 0.32 0.32 0.32 0.32 0.32 0.32 0.32 0.32 0.32 0.32 0.30 0.30 0.30 0.30 0.28 0.26 0.26 0.26 0.26 0.26 0.26 0.26 0.26 0.24 0.24 0.24 0.22 0.22 0.22 0.22 0.22 0.22 0.22 0.22 0.22 0.22 0.22 0.22
0.36 0.36 0.34 0.32 0.32 0.30 0.30 0.30 0.26 0.26 0.26 0.24 0.24 0.24 0.24 0.24 0.24 0.26 0.26 0.26 0.26 0.28 0.30 0.32 0.32 0.34 0.34 0.36 0.36 0.36 0.36 0.36 0.36 0.36 0.34 0.34 0.32 0.32 0.30 0.28 0.28 0.26 0.26 0.26 0.24 0.24 0.24 0.26 0.26 0.26 0.28 0.28 0.28 0.28 0.26 0.24 0.24 0.24 0.22 0.22 0.22 0.22 0.22 0.22 0.22 0.22 0.22 0.22 0.22
0.36 0.36 0.36 0.34 0.34 0.32 0.32 0.32 0.30 0.30 0.30 0.30 0.30 0.30 0.30 0.30 0.30 0.30 0.32 0.32 0.34 0.36 0.38 0.40 0.40 0.40 0.40 0.38 0.38 0.38 0.36 0.36 0.36 0.32 0.30 0.28 0.26 0.24 0.24 0.22 0.22 0.22 0.22 0.24 0.24 0.24 0.26 0.26 0.28 0.28 0.28 0.30 0.28 0.26 0.26 0.24 0.24 0.24 0.24 0.24 0.24 0.24 0.24 0.24 0.24 0.24 0.24 0.24 0.24
0.34 0.34 0.34 0.34 0.32 0.32 0.32 0.32 0.32 0.32 0.32 0.32 0.32 0.32 0.32 0.34 0.34 0.34 0.36 0.38 0.40 0.40 0.40 0.40 0.40 0.38 0.38 0.36 0.34 0.32 0.30 0.28 0.26 0.26 0.24 0.22 0.22 0.22 0.20 0.20 0.20 0.22 0.22 0.24 0.24 0.24 0.26 0.26 0.28 0.28 0.28 0.28 0.28 0.26 0.26 0.24 0.24 0.24 0.24 0.24 0.24 0.24 0.24 0.24 0.24 0.24 0.24 0.24 0.24
0.32 0.32 0.32 0.32 0.32 0.32 0.32 0.32 0.34 0.34 0.34 0.34 0.34 0.34 0.34 0.36 0.36 0.36 0.38 0.38 0.38 0.38 0.36 0.34 0.34 0.32 0.30 0.28 0.26 0.24 0.22 0.22 0.22 0.20 0.20 0.20 0.20 0.20 0.20 0.20 0.20 0.22 0.22 0.24 0.24 0.26 0.26 0.26 0.26 0.28 0.28 0.28 0.28 0.26 0.26 0.24 0.24 0.24 0.24 0.24 0.24 0.24 0.24 0.24 0.24 0.24 0.24 0.24 0.26
0.32 0.32 0.32 0.32 0.34 0.34 0.34 0.34 0.34 0.34 0.34 0.34 0.34 0.34 0.34 0.34 0.34 0.34 0.34 0.34 0.34 0.32 0.30 0.28 0.26 0.24 0.22 0.22 0.20 0.20 0.20 0.20 0.20 0.20 0.20 0.20 0.20 0.20 0.20 0.20 0.22 0.22 0.22 0.24 0.24 0.26 0.26 0.26 0.28 0.28 0.30 0.30 0.28 0.28 0.26 0.24 0.24 0.24 0.24 0.24 0.24 0.24 0.24 0.24 0.24 0.24 0.24 0.26 0.26
0.34 0.34 0.34 0.34 0.34 0.34 0.34 0.32 0.32 0.32 0.32 0.32 0.32 0.32 0.32 0.30 0.30 0.30 0.30 0.30 0.28 0.26 0.24 0.22 0.20 0.20 0.20 0.20 0.20 0.20 0.20 0.22 0.22 0.22 0.20 0.22 0.20 0.20 0.20 0.20 0.22 0.22 0.24 0.24 0.26 0.26 0.28 0.28 0.28 0.30 0.30 0.30 0.30 0.28 0.26 0.26 0.26 0.24 0.24 0.24 0.24 0.24 0.24 0.24 0.24 0.24 0.24 0.26 0.26
0.32 0.32 0.32 0.32 0.30 0.30 0.30 0.28 0.26 0.26 0.26 0.26 0.26 0.26 0.26 0.26 0.24 0.24 0.24 0.24 0.22 0.22 0.20 0.20 0.18 0.20 0.20 0.20 0.22 0.22 0.22 0.22 0.22 0.22 0.22 0.20 0.20 0.20 0.22 0.22 0.22 0.24 0.24 0.26 0.26 0.28 0.28 0.30 0.30 0.30 0.32 0.32 0.30 0.30 0.28 0.26 0.26 0.24 0.24 0.24 0.24 0.24 0.24 0.26 0.24 0.24 0.24 0.24 0.26
0.28 0.28 0.26 0.26 0.24 0.24 0.24 0.22 0.22 0.22 0.22 0.20 0.20 0.20 0.20 0.20 0.20 0.20 0.20 0.20 0.20 0.20 0.20 0.18 0.20 0.20 0.22 0.22 0.22 0.22 0.22 0.22 0.22 0.22 0.22 0.22 0.22 0.22 0.22 0.24 0.24 0.24 0.26 0.26 0.28 0.30 0.30 0.30 0.32 0.32 0.32 0.32 0.32 0.30 0.30 0.28 0.26 0.26 0.24 0.24 0.24 0.26 0.26 0.26 0.26 0.26 0.24 0.24 0.26
0.24 0.22 0.22 0.22 0.20 0.20 0.20 0.18 0.18 0.18 0.20 0.18 0.18 0.18 0.20 0.20 0.20 0.20 0.20 0.20 0.20 0.20 0.20 0.20 0.22 0.22 0.22 0.22 0.22 0.22 0.22 0.22 0.22 0.22 0.22 0.22 0.22 0.24 0.24 0.24 0.24 0.26 0.26 0.28 0.28 0.30 0.32 0.32 0.32 0.32 0.32 0.32 0.32 0.32 0.30 0.28 0.26 0.26 0.24 0.24 0.26 0.26 0.26 0.26 0.26 0.26 0.24 0.24 0.26
0.20 0.20 0.20 0.18 0.18 0.18 0.18 0.18 0.18 0.18 0.18 0.18 0.18 0.20 0.20 0.20 0.20 0.20 0.20 0.20 0.20 0.22 0.22 0.22 0.22 0.22 0.24 0.24 0.24 0.22 0.22 0.22 0.22 0.22 0.22 0.24 0.24 0.24 0.26 0.26 0.26 0.26 0.28 0.28 0.28 0.30 0.30 0.32 0.32 0.32 0.32 0.32 0.32 0.32 0.30 0.28 0.26 0.24 0.24 0.24 0.26 0.26 0.26 0.26 0.26 0.26 0.26 0.26 0.26
Wind_Speed
30 29 29 29 29 28 28 28 27 27 27 27 27 27 27 26 25 25 24 24 24 24 24 23 23 23 23 23 24 24 25 25 25 25 26 26 26 27 27 28 28 28 29 29 30 31 32 33 33 34 34 35 35 35 35 36 36 36 36 36 36 36 36 35 35 35 34 34 34
30 30 29 29 28 27 27 27 27 26 26 26 26 26 26 26 26 25 24 24 24 24 24 24 24 23 23 23 24 24 24 25 25 25 26 26 26 27 27 28 28 28 29 29 30 31 32 33 34 34 34 34 35 35 35 36 35 35 35 35 35 36 35 35 35 35 35 34 34
30 30 29 29 28 27 26 26 26 26 26 25 25 25 25 26 26 25 24 24 24 24 24 24 24 24 24 24 24 24 25 25 25 25 26 26 26 27 27 27 28 28 28 29 30 31 32 33 33 34 34 34 34 35 35 35 35 35 34 34 34 34 34 34 35 35 35 34 34
30 30 29 28 27 26 26 26 25 25 25 24 24 25 25 25 25 25 25 24 24 24 24 25 25 24 24 24 24 24 25 25 25 25 26 26 26 26 27 27 27 28 28 29 30 31 32 32 33 33 33 33 33 33 34 34 34 33 33 33 33 33 33 33 34 34 34 34 34
29 29 29 28 27 27 26 26 25 24 24 24 25 25 25 25 25 25 24 24 24 24 24 25 25 25 25 25 25 25 25 25 25 26 26 26 26 26 26 26 27 27 28 29 29 30 31 31 31 32 32 32 32 32 32 33 33 32 32 32 32 32 32 32 32 33 33 33 33
28 28 29 28 28 27 26 25 25 24 24 25 25 25 25 25 25 24 24 24 24 24 24 25 25 25 25 25 25 25 25 25 26 26 26 26 25 25 25 26 26 27 28 28 29 29 30 30 30 31 31 31 31 31 32 32 32 31 31 31 31 31 31 31 31 31 31 31 31
28 28 28 28 27 27 26 25 25 25 25 25 24 24 24 24 23 23 23 23 23 24 24 24 24 25 25 25 25 25 26 26 26 26 26 25 25 25 25 25 26 26 27 28 28 29 29 30 30 30 30 30 30 30 30 30 29 29 29 29 29 29 28 28 29 29 29 29 29
27 27 27 27 27 26 26 25 25 25 24 24 23 23 23 23 23 23 23 23 23 23 23 23 24 24 24 25 25 26 27 27 26 26 25 25 24 25 25 25 26 26 27 27 28 28 29 29 29 29 29 28 28 28 28 27 27 27 26 26 26 26 27 27 27 27 27 27 28
27 27 27 27 27 26 26 25 25 25 24 23 23 23 23 23 23 23 23 22 22 22 22 22 23 23 24 24 25 26 26 26 25 25 25 25 25 25 25 25 26 26 27 27 27 28 28 28 28 27 27 27 26 26 26 26 25 25 25 25 26 26 26 26 27 27 27 27 28
27 27 27 26 26 26 26 25 25 25 24 23 23 23 23 22 22 22 22 22 22 22 22 22 22 23 24 25 25 25 25 25 25 25 25 26 26 26 26 26 26 26 27 27 27 27 27 27 26 26 26 25 25 25 25 25 25 25 25 26 26 26 27 27 27 28 28 29 29
26 26 26 26 26 26 26 25 25 25 24 24 23 23 22 22 22 23 23 22 22 21 22 23 23 24 24 24 24 24 24 24 25 26 26 27 27 27 27 27 27 27 28 28 27 27 26 26 25 25 25 25 25 25 25 25 26 26 26 27 27 27 28 28 29 29 30 30 31
26 26 26 26 26 26 26 25 25 24 24 24 23 23 22 22 22 23 23 22 21 21 22 23 24 24 23 23 23 23 24 25 26 26 27 27 28 28 28 28 28 28 28 28 27 26 25 24 24 24 24 24 24 25 25 26 26 27 27 28 28 29 29 30 30 31 31 32 33
25 25 25 25 25 25 25 25 25 24 24 24 23 23 22 23 23 23 22 21 21 21 22 23 23 23 23 23 24 24 25 25 26 26 27 27 28 28 28 29 28 28 28 27 25 24 24 24 24 24 24 25 25 25 25 26 27 27 28 29 29 30 30 31 31 32 32 33 33
24 24 24 24 24 25 25 25 25 24 24 24 24 23 23 23 23 22 21 21 21 21 22 23 23 23 24 24 25 25 25 26 26 26 27 27 28 28 28 28 27 27 26 25 25 24 24 24 25 25 25 26 26 26 26 27 27 28 28 29 29 30 30 31 31 32 32 33 33
23 23 23 23 24 24 25 25 25 24 24 24 24 24 23 23 22 21 21 21 21 22 22 23 23 24 24 24 25 25 26 26 26 27 27 27 27 27 27 26 26 26 25 25 25 25 25 26 26 26 27 27 27 27 27 27 28 28 29 29 29 30 30 31 31 31 32 32 32
22 22 23 23 23 24 24 24 24 24 24 24 24 23 23 22 22 21 21 21 22 22 23 23 23 24 24 24 25 25 26 26 26 27 27 26 26 26 26 25 25 25 25 26 26 26 27 27 27 27 28 28 28 28 28 29 29 29 30 30 30 30 31 31 31 32 32 32 32
21 22 22 22 23 23 24 24 24 24 23 23 23 22 22 22 22 22 22 22 22 23 23 23 23 24 24 25 25 26 26 26 27 26 26 26 26 25 25 25 25 25 26 26 27 27 28 28 28 29 29 29 29 29 29 30 30 31 31 31 31 32 32 32 33 33 33 33 33
21 21 21 21 22 22 22 22 22 22 22 22 22 22 22 22 22 22 22 22 23 23 23 23 23 24 24 25 25 26 26 26 26 26 26 26 25 25 25 25 25 26 26 27 27 28 28 29 29 29 29 29 30 30 30 30 31 31 31 32 32 32 33 33 33 33 34 34 34
20 20 20 20 20 20 20 20 20 21 21 21 21 22 22 22 22 23 23 23 23 23 23 23 23 24 24 25 26 26 26 26 26 26 26 26 25 25 25 25 26 26 27 27 28 28 29 29 29 29 30 30 30 30 31 31 31 31 32 32 32 32 32 32 33 33 33 33 33
20 20 20 20 19 19 19 19 19 20 20 21 21 22 22 22 23 23 23 23 24 24 23 23 23 24 25 25 26 26 26 26 26 26 25 25 25 25 26 26 26 27 27 28 28 29 29 29 30 30 30 30 31 31 31 31 31 31 31 31 32 32 32 32 32 32 32 32 33
19 19 20 20 19 19 19 19 19 20 20 21 21 21 22 22 23 23 24 24 24 24 23 23 24 24 25 25 25 26 26 26 25 25 25 25 25 26 26 27 27 27 28 28 28 29 29 30 30 30 30 30 30 31 31 31 31 31 31 31 31 32 32 32 32 32 32 32 32
19 19 19 19 19 19 19 19 20 20 20 20 21 21 22 23 23 23 24 24 23 23 23 23 24 24 24 25 25 25 25 25 24 24 25 25 26 26 26 27 27 27 27 27 28 28 28 29 29 30 30 30 30 30 30 31 31 31 31 31 31 31 31 31 31 31 31 32 32
18 18 19 19 19 19 20 20 20 20 20 21 21 22 22 22 23 23 23 23 23 23 23 23 23 24 24 24 24 24 24 23 24 24 24 25 25 26 26 26 26 26 27 27 27 27 27 28 28 29 29 29 30 30 30 30 31 31 31 31 31 31 31 31 31 31 31 31 31
16 16 17 18 18 18 19 20 20 20 20 21 21 21 22 22 22 22 22 22 22 22 22 22 23 23 23 23 23 23 23 23 23 24 24 25 25 25 25 26 26 26 26 26 26 27 27 27 28 28 28 29 29 29 30 30 30 30 31 31 31 31 31 31 31 31 31 31 31
13 14 15 15 16 16 17 18 18 19 19 20 20 20 21 21 21 21 21 21 21 21 21 22 22 22 22 22 22 22 22 23 23 23 24 24 24 24 24 25 25 25 25 26 26 27 27 27 27 28 28 28 29 29 29 30 30 30 30 30 31 31 31 31 31 31 31 32 32
12 13 13 13 14 14 15 15 16 17 18 18 18 19 19 19 19 20 20 20 20 20 21 21 21 21 21 21 21 21 21 22 22 23 23 23 23 23 23 24 24 25 25 26 26 27 27 27 27 27 28 28 28 29 29 29 29 30 30 30 30 31 31 32 32 32 32 33 33
11 11 11 12 12 13 13 14 15 15 16 16 17 17 17 18 18 18 19 19 19 20 20 20 20 20 20 20 20 20 20 21 21 22 22 22 22 23 23 23 24 24 24 25 26 26 26 27 27 27 27 27 28 28 28 29 29 30 30 30 31 31 32 32 33 33 33 34 34
10 10 10 11 11 12 12 13 13 14 14 15 15 16 16 16 17 17 17 18 18 18 18 19 19 19 19 19 19 19 20 20 20 21 21 21 22 22 22 23 23 23 23 24 25 25 26 26 27 27 28 28 28 28 29 29 30 30 30 31 31 32 32 32 33 33 34 34 35
9 9 9 9 10 10 11 11 12 12 13 13 14 14 14 15 15 15 15 16 16 17 17 17 17 17 17 17 18 18 19 19 19 20 20 20 20 21 21 21 22 23 23 24 25 26 26 27 27 28 28 28 28 28 29 29 30 30 31 31 32 32 33 33 34 34 35 35 36
7 7 7 8 8 8 9 9 10 10 11 12 12 12 13 13 13 13 14 14 14 15 15 15 15 15 16 16 16 17 17 17 18 18 18 19 20 20 21 22 23 23 24 25 26 27 27 27 28 28 28 28 28 29 29 30 30 31 32 32 33 33 34 34 35 35 36 36 37
6 6 6 6 6 7 7 8 9 10 10 11 11 11 12 12 12 12 12 13 13 13 13 13 14 14 14 15 15 15 16 17 17 18 19 20 20 21 22 23 24 25 26 26 27 27 27 27 28 28 28 29 29 29 30 30 31 32 32 33 33 34 35 35 35 36 37 37 37
6 6 6 6 6 6 7 7 8 9 9 10 10 10 10 11 11 11 11 11 12 12 12 12 12 12 13 14 14 15 16 18 19 20 21 22 22 23 24 24 25 25 26 26 27 27 27 28 28 29 29 29 29 30 31 31 32 33 33 34 34 35 35 36 36 37 37 38 38
7 6 6 6 6 6 6 6 7 7 8 8 8 9 9 9 10 10 10 10 11 11 11 11 12 12 13 15 16 18 19 20 21 22 22 23 23 23 24 24 24 25 26 26 27 27 28 28 29 29 30 30 30 31 31 32 33 33 34 34 35 35 36 36 37 37 37 38 38
6 6 6 5 5 5 5 5 5 5 6 6 7 7 8 8 8 9 9 9 10 10 11 12 13 14 16 17 19 20 21 21 21 21 22 22 22 23 23 24 25 25 26 27 27 28 28 29 29 30 30 30 30 31 32 32 33 34 34 35 35 36 36 37 37 37 38 38 39
5 5 4 4 4 3 3 3 3 4 4 5 5 6 7 7 8 8 9 10 11 12 13 14 15 17 18 19 20 20 20 20 21 21 22 22 23 23 24 25 25 26 27 27 28 28 29 29 30 30 30 30 31 32 32 33 33 34 35 35 36 36 37 37 38 38 38 39 39
5 4 3 3 2 2 1 2 2 3 4 5 5 6 7 8 9 10 11 12 13 14 15 16 17 18 19 19 19 20 20 20 21 21 22 23 23 24 25 25 26 27 27 28 28 29 29 29 30 30 30 31 32 32 33 33 34 35 35 36 36 37 37 38 38 39 39 39 40
4 3 3 2 1 1 2 3 4 5 6 7 8 9 9 10 11 12 13 14 15 15 16 17 18 18 19 19 19 20 20 21 21 22 23 23 24 24 25 26 26 27 27 28 28 29 29 30 30 30 31 31 32 33 33 34 34 35 36 36 37 37 37 38 38 39 39 40 40
3 3 2 2 3 4 4 5 6 7 8 9 9 10 11 12 12 13 14 14 15 15 16 17 18 18 19 19 19 20 20 21 22 22 23 24 24 25 25 26 26 27 28 28 29 29 29 30 31 31 32 32 33 34 34 35 35 36 36 36 37 37 37 38 38 39 39 40 41
2 3 3 3 4 5 6 6 7 7 8 8 9 10 10 11 11 12 13 14 14 15 16 17 17 18 19 19 19 20 21 21 22 23 23 24 24 25 25 26 27 27 28 28 29 29 30 30 31 32 32 33 34 34 35 35 36 36 36 37 37 37 38 38 39 39 39 40 41
2 3 3 4 4 5 5 6 7 7 8 8 9 9 10 10 11 12 13 13 14 15 16 17 17 18 18 19 19 20 21 22 23 23 24 24 25 25 26 26 27 27 28 29 29 30 30 31 32 33 33 34 34 35 35 36 36 37 37 37 38 38 39 39 39 39 40 40 41
3 3 4 4 4 5 6 6 7 7 8 8 9 9 10 11 11 12 13 14 14 15 16 17 17 18 19 19 20 21 22 22 23 24 24 25 25 26 26 26 27 28 28 29 30 30 31 32 33 33 34 35 35 36 36 37 37 38 38 39 39 40 40 40 41 41 41 41 42
Wind_Direction
226 226 227 228 228 230 230 230 230 230 231 230 229 229 228 228 228 228 228 229 229 231 233 235 237 239 241 243 244 246 248 249 250 251 253 254 255 256 258 259 261 263 264 265 266 267 268 269 270 271 271 271 271 270 270 270 270 269 269 268 268 269 269 270 270 270 269 268 268
225 226 226 227 229 230 230 229 229 229 230 230 229 228 228 227 228 228 229 229 230 231 233 235 237 239 241 243 244 246 247 248 249 250 252 253 255 257 259 262 264 266 266 267 267 268 269 271 271 272 272 271 271 270 270 270 270 269 269 269 269 268 268 269 269 269 269 269 268
225 225 226 227 228 229 229 229 228 228 228 228 228 228 227 227 228 230 230 231 231 232 234 235 237 239 241 243 244 246 247 248 248 250 251 254 256 259 262 265 267 268 268 269 269 270 271 272 272 272 272 272 271 271 270 271 270 270 270 270 269 269 268 268 268 268 268 268 268
225 224 224 224 225 227 228 228 228 227 228 228 227 227 227 228 230 231 232 232 232 233 234 236 238 239 241 243 245 246 248 249 250 252 253 256 258 261 265 267 269 269 270 271 272 273 274 274 274 273 273 273 272 272 272 272 272 271 271 270 270 269 269 268 268 267 267 267 268
223 222 222 223 224 226 227 228 227 227 228 227 227 227 228 230 232 233 233 233 234 234 236 237 238 240 242 243 245 247 249 251 253 255 256 258 260 263 266 268 269 271 272 273 275 276 276 276 275 275 274 274 274 274 273 273 272 271 270 270 270 269 268 268 267 267 266 267 267
221 221 222 223 223 224 226 227 227 228 228 228 228 228 230 232 233 234 234 234 234 236 237 238 240 241 242 244 246 248 250 252 255 256 258 259 262 264 266 268 270 271 273 275 276 277 277 277 276 276 275 275 274 273 272 272 270 270 269 269 269 268 268 267 266 266 266 266 266
220 221 221 222 222 223 224 225 227 228 229 230 230 231 232 233 233 233 233 233 235 237 238 240 241 242 244 246 248 250 252 254 255 257 259 260 263 265 266 268 270 272 274 276 277 277 277 276 276 275 275 274 273 272 271 270 269 269 268 268 268 268 268 267 267 267 267 267 268
219 220 221 222 222 221 222 223 225 227 229 231 232 232 233 232 231 231 231 233 235 237 239 241 243 244 246 248 250 252 254 255 257 259 261 263 265 266 268 269 271 273 274 275 275 276 275 275 275 274 274 273 272 272 272 272 271 270 269 269 269 269 269 269 270 270 270 271 271
219 220 221 222 222 221 221 222 224 226 228 230 230 230 230 230 229 230 231 233 236 239 241 243 245 247 248 250 252 253 255 257 259 262 264 266 267 269 270 270 271 271 272 273 274 274 274 274 274 274 274 274 274 274 274 274 273 272 271 270 270 271 271 272 272 273 273 274 274
218 220 221 221 221 221 221 222 224 225 227 227 228 228 228 228 230 232 234 237 239 242 244 246 248 250 251 252 253 255 257 260 262 264 265 267 268 268 269 269 269 270 270 272 273 273 274 274 274 274 274 274 274 275 275 275 274 274 273 272 273 273 273 273 274 274 274 275 275
217 219 221 221 220 220 221 222 224 225 225 225 226 227 228 230 233 236 238 240 242 244 247 249 250 252 253 254 256 258 260 262 263 264 265 266 267 267 267 267 268 269 271 272 273 273 273 274 274 275 275 275 275 276 276 276 276 275 275 275 274 274 274 274 274 274 273 273 273
217 219 221 220 220 219 220 222 223 224 224 224 225 227 230 234 237 240 243 244 245 247 249 251 253 254 256 258 259 261 262 263 263 264 265 266 266 266 266 267 268 270 271 272 273 273 273 274 275 275 276 276 275 275 275 276 276 275 275 275 274 274 273 273 273 272 272 272 271
217 219 220 220 219 219 220 221 223 224 224 225 227 230 234 238 241 244 246 247 249 250 252 254 256 258 259 260 260 261 262 262 264 265 265 265 266 266 267 269 270 271 272 272 272 273 273 274 275 275 275 275 274 274 274 274 274 274 273 273 272 272 272 272 271 271 271 270 270
217 218 218 219 219 219 220 221 223 225 226 227 230 233 237 241 244 246 248 250 251 253 254 256 257 258 259 259 260 261 262 263 264 265 266 266 267 268 270 271 272 272 272 272 272 273 273 274 274 274 273 273 273 273 273 272 272 272 271 271 271 270 270 270 270 270 270 270 270
217 217 218 218 219 220 221 222 224 226 228 230 233 236 239 243 246 248 250 252 253 254 255 256 257 258 259 260 261 262 263 264 265 266 267 268 270 271 272 272 272 271 271 271 271 272 272 273 272 272 272 272 272 272 272 272 272 271 270 270 270 270 270 270 271 271 271 271 271
218 219 219 219 221 222 223 225 227 229 231 233 236 238 241 245 247 249 250 252 253 254 255 256 258 260 261 263 263 264 264 265 266 267 269 271 272 273 273 272 271 271 270 271 271 271 271 271 271 271 271 271 272 272 273 273 273 272 271 271 271 271 271 272 272 272 273 273 273
220 221 221 222 224 225 226 228 230 232 234 235 238 240 243 245 247 249 251 252 254 255 256 258 260 262 263 264 264 264 265 266 268 269 271 272 273 272 272 271 271 271 271 271 271 271 270 270 270 270 271 271 272 272 273 273 273 273 273 273 273 273 273 273 274 274 274 275 275
221 222 223 225 226 227 229 230 231 233 235 236 238 241 243 245 246 249 251 253 255 257 258 260 261 263 264 265 265 266 267 268 270 271 271 272 272 271 271 271 271 271 271 271 270 270 270 269 269 270 270 270 271 271 272 272 273 273 273 274 274 274 274 274 274 275 275 276 276
220 222 223 224 226 227 228 230 231 233 234 236 237 239 241 244 246 249 251 254 257 259 261 262 264 264 265 266 267 268 269 270 271 272 271 271 271 271 270 271 271 271 271 270 270 269 269 269 269 270 270 270 271 271 272 272 272 273 273 274 274 275 275 275 275 275 276 276 276
218 219 221 221 222 223 225 228 230 232 233 234 236 238 241 244 247 250 253 256 259 261 263 264 265 265 266 267 268 269 270 271 272 272 272 271 271 271 270 270 270 270 270 269 269 269 269 269 270 270 270 271 271 272 273 273 274 275 275 275 276 277 277 277 277 277 278 278 278
217 218 219 220 220 221 224 227 229 231 233 235 237 239 242 245 249 252 255 258 261 263 264 264 265 265 266 267 269 270 271 271 272 271 271 270 270 270 270 269 269 269 268 268 268 269 269 270 270 271 272 273 274 275 276 277 277 278 278 278 279 279 279 279 279 280 280 280 280
217 218 220 221 222 222 224 228 231 233 235 237 240 242 245 248 251 254 257 260 262 262 263 263 264 265 266 267 269 270 271 270 270 270 269 268 268 268 268 267 267 267 268 269 270 270 271 272 273 274 275 276 277 278 278 279 280 280 280 281 281 281 281 281 281 281 281 281 281
216 218 221 223 225 226 227 230 233 236 238 241 244 246 249 251 254 256 258 260 260 260 261 262 263 264 266 267 268 269 269 268 268 267 267 266 266 266 266 267 267 269 270 272 273 274 274 275 276 277 278 279 279 280 280 281 281 282 282 282 282 282 282 282 282 282 281 281 281
214 219 222 225 227 229 231 233 236 239 242 245 247 250 251 253 255 256 257 257 258 258 260 261 262 264 265 266 266 266 266 265 265 265 265 265 266 266 268 269 271 273 274 275 276 277 278 278 279 279 280 280 281 281 282 282 283 283 283 283 283 283 282 282 282 282 282 281 281
211 217 222 226 229 231 234 236 239 241 244 246 248 250 251 252 252 253 254 255 256 257 259 260 262 263 264 264 264 264 264 264 264 266 267 268 269 271 272 273 274 275 276 277 279 279 280 280 280 280 281 281 282 282 283 283 283 283 283 283 283 283 282 282 282 282 281 281 281
205 212 218 222 226 229 232 235 238 240 242 244 245 246 247 248 249 250 252 253 255 257 259 260 262 263 263 263 263 263 264 266 268 269 271 273 274 275 275 276 276 277 277 279 280 281 281 281 282 282 282 282 282 282 283 283 283 284 284 283 283 283 283 282 282 281 281 281 281
201 207 212 216 220 223 227 230 233 236 238 240 242 243 245 246 248 250 252 254 256 258 260 261 262 262 262 263 264 266 268 270 271 273 274 275 276 277 277 278 278 278 279 280 281 282 282 282 282 283 282 282 282 282 283 283 284 284 284 284 284 284 283 283 282 282 282 281 281
199 204 208 212 216 220 224 227 230 233 236 238 241 243 245 247 250 252 254 257 258 260 261 261 262 262 263 265 267 269 271 273 274 275 276 277 278 278 279 279 279 280 281 282 282 282 282 282 283 283 283 283 283 283 283 284 284 284 284 285 284 284 284 283 283 283 283 282 282
196 201 206 210 215 219 223 227 230 234 237 240 243 245 248 250 253 255 257 258 259 260 261 261 262 264 266 268 270 271 273 274 275 276 277 278 278 279 279 280 280 280 281 283 283 283 283 283 284 284 285 285 284 284 284 284 285 285 285 285 285 285 284 284 284 284 284 283 283
192 198 204 210 215 220 225 229 232 236 239 241 244 246 249 251 253 255 257 258 259 260 261 263 265 267 269 270 272 273 274 276 276 277 278 279 279 279 280 280 281 282 283 284 285 285 285 285 285 285 285 286 285 285 285 285 285 286 286 286 286 286 285 285 285 285 285 285 284
187 195 202 209 215 221 226 230 233 235 238 240 242 244 246 248 250 252 253 255 258 260 262 265 267 269 270 272 273 275 276 277 278 279 279 280 281 281 282 282 283 284 285 286 286 286 286 286 286 286 286 286 286 285 286 286 286 287 287 287 287 287 287 286 286 286 286 286 285
181 187 194 200 208 215 221 226 229 232 235 237 238 241 243 245 247 249 252 254 257 260 263 265 267 269 272 274 276 278 280 281 282 282 282 283 283 283 284 285 285 285 286 287 287 287 287 287 287 287 287 287 287 287 287 287 288 288 288 288 287 287 287 287 287 287 287 287 286
173 178 183 189 196 204 211 218 224 228 232 235 238 241 244 246 249 251 254 256 259 262 265 269 273 277 280 282 284 285 285 285 285 285 285 285 285 286 286 286 286 286 287 288 288 288 288 288 288 288 288 288 288 288 288 289 289 289 288 288 288 288 288 288 288 288 288 288 288
163 168 173 180 188 197 206 215 223 229 235 240 244 248 251 253 256 258 260 263 267 271 275 280 284 286 286 287 287 287 287 287 287 287 287 287 287 287 287 287 287 287 288 289 289 289 289 289 289 289 289 289 289 289 289 290 290 290 290 290 290 290 290 290 290 290 290 290 290
146 152 159 168 179 192 205 217 229 239 246 253 258 261 263 265 268 271 274 277 280 282 284 285 286 286 286 287 287 287 288 288 288 288 288 288 288 288 288 288 288 289 290 291 291 290 290 290 290 290 291 290 290 291 291 292 292 293 293 293 293 293 292 292 292 291 291 290 290
122 126 131 140 154 175 208 240 259 269 274 278 280 281 281 281 282 283 284 285 285 285 284 284 285 286 287 288 288 289 289 289 289 289 289 290 290 290 290 290 290 291 292 292 292 292 292 292 293 293 293 293 293 293 294 295 295 295 295 295 294 294 294 293 292 291 291 290 289
92 90 86 79 53 340 311 302 300 298 296 293 291 290 288 287 286 285 284 284 284 284 284 285 287 288 289 290 290 290 290 290 290 291 291 292 292 292 292 292 292 293 294 294 295 295 295 296 296 296 295 295 295 296 296 296 296 296 295 295 294 294 293 293 292 291 290 290 289
50 37 17 351 328 314 306 303 302 300 299 296 293 291 289 288 286 286 285 286 286 286 288 288 289 290 290 291 291 291 291 291 292 293 293 294 294 294 295 295 295 296 296 297 298 298 298 298 298 298 297 296 295 296 296 296 296 295 295 294 294 293 293 292 292 291 291 290 290
1 344 329 319 312 308 306 306 306 306 304 301 299 297 295 293 292 291 290 290 290 290 290 290 291 291 291 292 292 293 294 294 295 295 296 297 297 298 298 298 298 298 299 299 300 300 299 299 298 298 297 296 295 295 295 295 295 295 294 294 293 293 293 293 293 293 292 292 292
357 344 334 327 322 319 318 317 315 313 310 308 306 304 302 299 297 295 294 293 292 292 292 292 293 293 294 295 296 296 297 298 299 299 300 300 300 301 301 300 299 299 299 299 300 299 299 298 298 298 297 296 295 295 295 295 295 295 295 294 294 294 294 294 294 294 293 293 293
14 2 353 344 336 331 327 324 320 316 313 310 308 306 303 301 299 297 296 295 295 295 295 296 297 298 299 300 300 301 302 302 303 303 302 302 302 302 301 300 299 299 299 299 299 299 299 299 298 298 298 297 296 295 295 296 296 296 295 295 294 294 294 294 294 294 294 293 293